Wind_Speed
4 4 6 7 7 7 3 0 4 5 5 5 5 6 6 6 6 6 6 6 6 6 6 5 5 4 4 4 4 3 3 3 3 2 2 2 2 2 2 2 2 1 1 1 1 2 2 2 2
5 5 5 6 7 3 2 2 4 6 7 6 6 7 7 7 7 7 6 6 7 7 6 5 5 4 4 4 4 4 4 4 3 3 3 3 2 2 2 2 2 2 2 2 2 2 2 2 2
5 4 5 5 3 2 4 5 5 7 7 7 7 7 8 8 8 8 7 7 7 7 6 6 5 5 5 5 5 5 5 4 4 4 3 3 3 2 3 3 3 3 3 3 2 2 2 2 2
5 5 6 5 1 4 6 6 6 7 6 7 8 8 9 9 9 8 7 8 8 7 6 6 6 5 6 5 5 5 6 5 4 4 4 4 4 4 3 3 3 3 3 3 3 3 2 2 3
5 5 6 3 2 6 9 7 8 7 7 7 7 9 9 9 10 10 10 9 8 8 7 6 6 6 6 6 6 6 5 5 5 5 5 5 5 5 4 4 4 4 3 3 4 4 3 3 4
6 6 4 1 6 7 9 8 8 7 8 8 9 9 10 10 11 10 10 10 9 8 8 6 6 6 6 6 5 6 6 5 5 6 5 5 5 4 4 4 4 4 5 5 4 5 5 4 4
5 4 3 3 8 8 9 8 7 8 9 8 9 10 10 10 10 11 10 9 9 9 9 7 7 6 6 6 6 6 6 6 6 6 6 6 6 6 5 5 5 5 5 5 5 5 5 6 6
6 6 5 4 8 10 11 9 8 8 9 10 10 11 11 11 11 11 11 9 9 9 9 9 8 7 7 7 6 7 7 7 7 7 6 7 6 6 6 6 6 6 6 6 6 6 6 6 7
7 8 6 6 10 12 11 10 10 10 10 11 11 12 11 11 11 11 11 10 9 10 10 9 9 8 8 7 7 7 7 7 7 7 6 6 6 7 7 7 7 7 6 6 7 7 7 7 7
8 7 7 9 12 12 11 10 10 10 9 10 12 13 12 11 12 12 11 10 10 10 10 9 9 8 8 8 7 7 7 7 7 7 6 6 6 7 8 8 8 8 7 7 7 8 7 8 8
11 10 10 12 15 13 13 11 11 11 12 12 13 13 13 13 12 12 12 11 10 10 9 10 9 8 8 8 8 8 7 7 7 7 7 7 7 8 8 8 8 8 7 7 8 8 8 7 7
14 14 14 15 15 14 13 12 13 11 12 14 13 15 14 14 14 13 13 12 11 10 9 9 9 8 8 8 8 7 7 7 7 8 8 8 9 9 9 9 8 7 8 8 9 9 7 7 8
15 15 16 16 16 15 14 14 14 12 13 14 13 14 14 14 14 13 13 12 12 11 9 9 9 9 8 9 9 8 8 8 9 9 9 9 9 9 9 9 9 9 9 8 9 9 8 8 8
15 16 17 16 16 16 15 14 14 13 14 15 15 14 14 14 14 15 14 13 12 11 11 10 9 9 9 10 10 9 9 9 10 10 10 10 10 10 10 11 11 11 11 10 10 9 8 8 8
16 16 16 16 17 17 17 15 14 13 15 17 16 15 15 15 15 16 15 14 14 13 12 11 11 10 10 10 10 10 10 10 10 10 11 11 11 11 11 11 11 12 11 11 11 10 10 9 9
15 16 17 17 16 16 17 15 14 14 15 17 17 16 16 16 16 15 15 15 14 13 12 12 12 10 10 11 11 10 11 11 11 11 12 12 12 12 12 12 12 12 12 12 12 12 11 11 11
16 17 17 15 16 16 17 16 15 15 16 17 18 18 17 17 17 16 15 14 14 13 13 13 12 12 11 12 12 12 12 12 12 12 12 13 13 13 12 12 12 12 13 12 12 12 12 12 11
15 15 16 15 17 19 19 18 18 16 17 19 20 19 18 17 17 16 16 14 14 14 14 14 14 13 12 13 13 12 12 12 12 12 11 12 12 12 12 12 12 12 13 13 13 13 13 13 13
17 17 17 16 18 20 20 19 20 19 18 19 20 20 19 18 18 17 16 16 15 15 15 15 15 14 14 14 14 13 13 13 13 13 13 13 13 13 13 12 12 12 13 13 14 14 14 14 14
20 20 20 19 18 21 22 20 20 22 21 20 20 20 19 19 19 19 18 17 16 16 16 16 16 16 14 15 15 14 14 14 14 14 14 14 14 14 14 13 14 14 13 14 14 14 15 15 16
21 20 20 19 19 21 21 21 20 22 22 21 20 20 20 20 19 19 19 17 17 17 16 17 16 16 16 16 16 16 15 15 15 15 15 15 15 15 15 15 16 15 15 15 15 15 15 16 16
21 20 21 20 20 21 20 21 20 22 22 21 20 20 20 20 20 19 19 19 18 18 18 17 17 16 16 16 16 16 16 16 16 17 16 16 15 15 15 16 17 17 16 16 17 17 18 18 17
20 19 20 20 20 21 22 22 23 23 23 20 20 19 19 20 20 19 20 20 19 18 18 18 19 18 17 17 16 16 16 17 17 17 17 17 16 16 16 17 17 17 18 17 18 19 19 19 18
20 19 20 20 19 22 21 22 23 22 22 20 19 19 19 19 20 20 20 19 20 20 19 19 20 20 19 19 18 18 18 18 18 18 18 18 17 17 18 17 18 18 18 18 19 19 19 19 19
21 20 19 19 21 22 21 23 23 22 20 21 20 20 20 20 21 22 22 21 21 21 20 20 20 20 20 20 20 20 20 20 20 19 19 19 19 19 19 19 19 18 18 18 19 19 20 19 20
20 20 20 19 19 18 19 22 21 21 20 22 22 22 22 22 22 23 22 22 22 21 21 21 21 22 22 22 22 22 22 21 21 21 21 21 20 21 21 21 21 20 19 19 19 20 20 20 20
20 20 18 19 19 18 18 20 21 21 22 22 22 22 23 22 22 23 23 22 22 22 22 22 22 23 23 23 23 23 22 22 22 22 22 22 22 22 22 22 22 21 21 20 21 21 21 21 21
21 21 21 23 22 20 19 20 22 23 23 22 23 23 23 23 22 23 23 23 23 22 22 23 24 24 24 24 24 24 24 24 24 24 23 23 22 23 23 23 22 21 21 21 21 21 21 22 22
21 22 23 23 24 23 21 22 23 25 26 26 25 24 24 24 24 25 24 24 24 24 24 24 24 25 25 25 24 24 25 25 25 24 24 23 23 23 23 22 22 22 21 21 22 22 21 21 22
23 24 24 25 24 24 23 24 25 25 26 26 26 25 26 25 25 26 25 26 25 25 25 24 24 24 25 25 25 25 24 24 24 24 24 23 23 23 23 22 22 22 22 22 22 22 22 22 22
Wind_Direction
124 110 101 95 79 77 72 16 295 309 310 317 325 327 325 317 312 312 322 323 328 319 314 310 311 315 312 303 295 289 289 287 279 276 261 250 243 214 209 222 217 193 193 223 194 204 214 197 195
129 116 105 89 69 49 328 289 294 303 310 316 321 323 321 315 309 316 323 325 323 317 311 307 300 310 311 303 296 291 289 285 280 280 263 248 240 223 236 244 240 231 249 250 224 220 229 220 207
134 127 108 81 54 312 290 282 296 301 312 321 323 322 318 315 313 314 321 324 324 316 313 308 299 304 305 298 293 293 295 289 283 282 269 262 241 235 255 258 251 256 254 246 237 231 229 224 218
144 132 111 98 1 288 278 292 295 303 309 318 322 320 320 319 318 317 320 323 323 317 317 312 301 301 299 291 289 294 294 291 288 284 271 277 276 273 268 272 273 271 260 252 246 245 237 233 230
159 133 113 121 298 280 278 277 281 291 306 314 319 316 315 314 314 318 319 321 321 315 314 308 303 302 299 290 285 287 286 287 288 284 280 282 283 286 285 286 287 281 272 265 256 248 242 240 236
171 143 122 184 255 267 285 282 277 290 298 306 310 309 310 313 314 316 318 317 316 315 311 308 307 305 301 296 288 285 282 283 286 287 283 284 279 274 282 285 292 289 273 269 260 253 245 241 242
194 169 150 221 263 271 278 284 279 277 288 296 299 304 309 310 312 316 318 313 311 309 309 308 309 307 307 300 295 290 285 280 282 284 279 280 277 277 277 284 286 286 282 269 263 255 256 251 247
197 199 183 217 261 269 278 283 280 280 288 294 300 302 305 313 313 313 312 310 309 304 305 309 307 303 304 300 297 294 289 285 281 277 280 285 278 280 278 282 283 283 281 272 263 255 257 257 254
202 208 188 219 253 261 273 279 281 282 288 296 301 302 308 308 309 307 305 305 306 305 304 306 306 302 298 295 297 293 287 288 284 280 279 281 276 281 282 285 289 288 278 269 263 260 256 260 258
216 228 211 224 241 256 267 272 277 282 278 286 295 298 303 307 303 303 301 303 305 303 302 303 302 301 301 300 295 293 288 289 289 285 283 280 282 284 285 284 290 289 280 271 265 264 268 262 263
233 241 234 238 248 255 262 270 273 279 284 284 288 292 296 301 305 305 303 299 301 304 301 302 303 300 299 299 297 294 292 292 292 289 287 289 289 286 285 287 288 291 282 276 274 270 271 274 269
243 242 239 245 254 259 265 267 271 271 273 279 284 290 295 299 300 300 302 303 300 301 301 301 301 299 302 300 299 295 290 291 292 288 284 284 286 287 286 288 288 288 285 275 277 278 274 274 266
246 251 250 249 254 259 266 267 272 273 273 276 284 291 296 297 298 299 297 298 295 296 298 296 297 298 300 298 299 295 292 293 292 291 288 285 284 285 285 287 285 286 286 277 276 274 273 273 269
244 250 252 252 256 260 266 269 272 275 276 276 281 286 291 297 299 297 291 291 291 294 294 296 294 295 298 297 296 297 297 299 300 299 296 291 285 283 282 281 281 281 282 280 277 273 275 275 271
248 249 252 252 254 262 268 268 271 276 277 277 280 282 287 291 294 293 294 290 290 293 291 294 290 288 293 297 292 292 294 296 298 298 295 291 288 285 285 284 282 282 279 276 276 273 268 270 273
249 252 255 259 262 263 268 268 271 274 276 279 281 282 284 290 292 293 292 286 285 287 288 291 288 285 289 291 290 287 291 297 300 295 291 292 292 288 285 282 283 283 281 276 271 268 267 268 270
250 255 260 261 263 263 267 269 273 269 269 275 281 283 283 287 290 289 289 290 285 283 282 286 285 283 284 286 285 283 290 297 299 298 296 291 291 290 287 283 283 281 277 275 272 269 266 266 268
251 258 266 263 258 262 262 262 267 265 268 272 279 283 284 286 285 285 286 286 286 284 281 283 281 279 280 283 281 279 287 291 296 297 298 298 297 294 290 287 284 279 275 274 270 269 269 267 268
248 250 253 259 258 264 265 260 263 265 263 267 273 279 283 284 284 283 283 280 281 281 282 282 279 278 280 281 280 281 287 291 294 294 293 296 300 298 295 291 288 282 276 276 269 267 270 268 269
248 247 246 247 253 261 262 260 263 266 263 264 270 274 278 279 281 282 281 281 281 279 276 277 278 276 277 277 278 281 286 291 292 292 293 295 296 296 295 293 290 289 280 277 271 269 271 270 269
249 250 248 246 253 261 266 264 261 261 262 265 269 271 272 275 278 279 281 279 278 276 273 275 274 276 276 275 277 281 285 289 290 292 292 293 294 293 292 291 289 288 283 278 273 271 273 273 271
250 252 249 244 248 256 261 266 262 265 265 266 269 270 271 273 275 276 278 279 277 274 273 271 271 274 272 271 274 280 283 286 289 291 291 291 292 294 293 290 287 285 283 280 273 269 270 270 271
249 250 250 248 246 251 253 260 263 264 267 265 268 268 269 273 273 273 274 275 277 274 271 269 267 269 268 269 274 280 283 285 287 289 292 291 291 293 294 293 290 285 284 282 278 272 271 270 269
246 247 250 251 249 251 255 259 263 261 268 270 268 268 269 273 273 273 272 274 275 273 270 269 267 268 268 269 273 278 282 284 286 288 291 291 290 291 293 292 291 287 285 282 280 276 273 271 269
246 245 248 251 249 254 258 260 259 259 260 266 268 271 273 272 272 273 274 273 274 272 271 269 268 268 269 269 271 275 279 282 285 288 290 291 291 291 291 291 290 289 286 282 279 277 271 270 269
248 245 244 248 256 264 263 265 263 261 260 263 265 266 268 270 271 273 275 275 274 271 269 268 268 267 267 267 270 272 276 281 284 288 290 290 290 290 289 289 287 286 286 283 281 278 272 269 269
245 246 243 248 252 261 269 269 262 257 259 265 268 269 270 273 270 271 273 274 272 272 270 269 268 267 266 265 268 271 275 279 283 287 289 288 289 289 289 288 287 285 284 283 281 279 275 271 269
240 242 242 241 246 251 258 264 264 265 269 270 272 274 274 274 272 271 272 273 273 273 272 270 267 267 268 268 269 270 273 276 279 284 286 287 287 289 290 289 286 284 284 283 282 279 276 272 271
242 241 244 246 245 248 253 258 262 265 269 271 272 272 276 275 272 271 272 273 273 275 273 270 268 268 268 268 268 270 271 273 276 280 282 284 285 287 290 289 285 284 284 283 283 279 277 274 271
247 243 245 251 248 249 253 258 260 262 266 270 271 272 274 276 276 275 273 272 273 273 273 271 270 269 268 268 268 269 271 272 275 277 278 281 283 285 288 288 287 287 285 284 284 281 278 276 274
Height
5897 5898 5898 5899 5900 5901 5901 5901 5901 5899 5898 5897 5896 5895 5893 5892 5892 5892 5889 5887 5887 5886 5885 5885 5884 5884 5883 5883 5882 5882 5882 5881 5881 5880 5880 5879 5879 5879 5879 5879 5879 5879 5879 5879 5880 5880 5881 5881 5882
5898 5898 5899 5900 5900 5901 5901 5900 5900 5899 5898 5896 5895 5895 5893 5892 5891 5889 5888 5887 5887 5886 5885 5884 5883 5883 5883 5882 5882 5882 5881 5881 5881 5880 5880 5879 5879 5879 5879 5879 5879 5879 5879 5880 5880 5880 5881 5881 5882
5897 5899 5900 5900 5901 5901 5901 5900 5900 5898 5897 5896 5895 5894 5893 5892 5890 5889 5888 5886 5886 5885 5885 5884 5883 5883 5882 5882 5882 5881 5881 5881 5880 5880 5880 5879 5879 5879 5879 5879 5879 5879 5879 5880 5880 5880 5881 5881 5882
5898 5899 5900 5901 5902 5902 5901 5900 5899 5898 5898 5896 5895 5894 5892 5891 5889 5888 5887 5886 5885 5885 5884 5883 5883 5882 5882 5881 5881 5881 5881 5880 5880 5880 5880 5879 5879 5879 5879 5879 5879 5879 5879 5879 5880 5880 5881 5881 5882
5897 5898 5899 5900 5902 5902 5900 5899 5899 5898 5897 5896 5895 5893 5891 5891 5889 5888 5887 5886 5885 5884 5884 5883 5882 5882 5881 5881 5880 5881 5880 5880 5880 5880 5879 5879 5879 5878 5878 5878 5878 5878 5879 5879 5879 5880 5880 5881 5881
5896 5896 5898 5900 5902 5901 5900 5899 5898 5898 5896 5895 5894 5892 5890 5890 5889 5887 5886 5885 5884 5883 5883 5882 5882 5881 5880 5880 5880 5880 5880 5879 5879 5879 5879 5879 5878 5878 5878 5878 5878 5878 5878 5878 5879 5879 5880 5880 5881
5895 5895 5896 5899 5901 5900 5899 5898 5897 5897 5896 5894 5893 5891 5888 5888 5887 5886 5885 5884 5883 5883 5882 5882 5881 5880 5880 5879 5879 5879 5879 5879 5879 5878 5878 5878 5878 5877 5877 5877 5877 5877 5877 5878 5878 5878 5879 5880 5880
5894 5895 5896 5899 5901 5899 5898 5897 5896 5895 5894 5893 5891 5890 5888 5887 5886 5885 5884 5883 5882 5882 5881 5881 5880 5880 5879 5879 5878 5878 5878 5878 5878 5878 5878 5877 5877 5877 5877 5877 5877 5877 5877 5877 5877 5878 5878 5879 5879
5893 5895 5895 5898 5899 5897 5896 5896 5895 5894 5893 5892 5890 5888 5888 5886 5885 5884 5883 5882 5881 5880 5880 5880 5879 5879 5878 5878 5877 5877 5877 5877 5877 5877 5877 5877 5877 5876 5876 5876 5876 5876 5876 5876 5876 5877 5877 5878 5878
5892 5892 5893 5895 5896 5894 5895 5894 5893 5892 5892 5891 5889 5887 5886 5884 5883 5882 5881 5881 5880 5879 5878 5878 5878 5878 5877 5877 5876 5876 5876 5876 5876 5876 5876 5876 5876 5876 5876 5876 5875 5875 5875 5875 5875 5876 5876 5876 5877
5889 5890 5890 5891 5892 5892 5892 5892 5891 5891 5890 5889 5887 5886 5885 5884 5882 5881 5880 5879 5879 5878 5878 5877 5876 5876 5876 5876 5876 5875 5875 5875 5875 5875 5875 5875 5875 5875 5875 5874 5874 5874 5874 5874 5874 5874 5875 5876 5876
5887 5888 5887 5888 5889 5889 5889 5889 5889 5889 5888 5886 5885 5884 5883 5882 5881 5880 5879 5878 5877 5877 5876 5876 5875 5875 5875 5875 5875 5874 5875 5875 5874 5874 5874 5874 5874 5874 5874 5874 5873 5873 5873 5873 5873 5873 5874 5874 5874
5884 5884 5885 5886 5886 5887 5886 5887 5886 5886 5885 5884 5883 5882 5882 5881 5879 5878 5877 5876 5875 5875 5875 5874 5874 5874 5874 5874 5874 5874 5874 5873 5873 5873 5873 5872 5872 5872 5872 5872 5872 5872 5872 5872 5872 5872 5873 5873 5873
5881 5881 5882 5882 5883 5883 5883 5884 5884 5883 5883 5882 5881 5880 5879 5879 5877 5876 5875 5874 5873 5873 5872 5872 5873 5873 5873 5873 5873 5872 5872 5872 5872 5871 5871 5871 5871 5871 5871 5871 5871 5870 5870 5870 5871 5871 5871 5871 5872
5876 5877 5878 5878 5879 5880 5881 5881 5881 5881 5880 5879 5878 5878 5877 5876 5875 5874 5873 5872 5871 5871 5871 5871 5871 5871 5871 5871 5871 5871 5871 5871 5871 5870 5870 5870 5869 5869 5869 5869 5869 5869 5868 5868 5869 5869 5869 5870 5870
5873 5874 5875 5876 5876 5877 5879 5878 5878 5878 5878 5877 5875 5875 5875 5874 5872 5871 5870 5869 5868 5869 5869 5869 5868 5869 5870 5870 5870 5870 5870 5870 5869 5869 5869 5868 5867 5867 5867 5867 5867 5866 5866 5866 5866 5867 5868 5868 5869
5869 5870 5871 5873 5873 5874 5875 5875 5875 5875 5875 5874 5873 5872 5872 5871 5870 5868 5867 5866 5867 5867 5867 5867 5867 5867 5868 5868 5868 5868 5868 5868 5867 5867 5866 5866 5865 5865 5864 5864 5864 5864 5864 5864 5864 5865 5865 5866 5866
5866 5868 5869 5870 5870 5871 5871 5872 5872 5872 5872 5871 5870 5869 5869 5868 5867 5866 5865 5865 5865 5865 5865 5865 5865 5865 5866 5866 5865 5866 5866 5866 5866 5865 5865 5864 5863 5862 5862 5861 5861 5861 5861 5862 5862 5862 5863 5863 5864
5863 5865 5867 5869 5869 5868 5868 5869 5868 5867 5868 5867 5867 5866 5865 5865 5864 5863 5862 5862 5863 5863 5863 5862 5863 5863 5863 5863 5863 5864 5864 5864 5863 5863 5863 5862 5861 5860 5859 5859 5859 5858 5858 5858 5859 5859 5860 5860 5861
5858 5860 5862 5864 5865 5864 5864 5864 5864 5863 5863 5863 5863 5863 5862 5861 5860 5859 5859 5859 5860 5859 5859 5860 5860 5860 5861 5861 5861 5862 5862 5861 5861 5861 5860 5860 5859 5858 5857 5856 5856 5855 5854 5855 5855 5856 5856 5857 5858
5854 5855 5857 5859 5860 5860 5860 5860 5859 5859 5858 5858 5859 5859 5859 5858 5857 5856 5855 5856 5856 5856 5855 5856 5857 5857 5858 5858 5858 5859 5859 5858 5858 5858 5858 5857 5856 5855 5854 5853 5853 5852 5852 5852 5852 5853 5853 5853 5854
5848 5851 5852 5854 5855 5855 5856 5854 5853 5853 5853 5853 5855 5855 5855 5854 5854 5853 5852 5852 5852 5853 5853 5853 5853 5854 5854 5854 5855 5856 5856 5856 5856 5855 5854 5854 5853 5852 5851 5851 5850 5849 5849 5848 5848 5849 5849 5850 5850
5845 5847 5847 5848 5849 5850 5850 5850 5850 5849 5848 5848 5850 5851 5851 5850 5849 5849 5848 5848 5848 5849 5849 5850 5850 5850 5850 5851 5852 5852 5852 5852 5852 5851 5851 5850 5850 5849 5848 5847 5846 5846 5845 5845 5845 5845 5845 5845 5846
5840 5842 5842 5843 5844 5845 5845 5846 5845 5845 5844 5844 5845 5846 5846 5846 5845 5845 5844 5845 5844 5844 5845 5846 5846 5847 5847 5848 5848 5848 5849 5849 5848 5848 5847 5846 5846 5845 5844 5844 5843 5842 5842 5841 5841 5841 5841 5841 5841
5835 5837 5838 5839 5839 5840 5840 5840 5841 5840 5840 5841 5841 5842 5841 5842 5841 5840 5839 5840 5839 5839 5840 5841 5841 5842 5843 5843 5844 5844 5845 5845 5844 5843 5843 5842 5841 5841 5840 5839 5839 5838 5837 5837 5836 5836 5836 5836 5836
5830 5832 5834 5835 5836 5835 5835 5835 5836 5835 5835 5836 5836 5837 5836 5836 5836 5835 5835 5835 5835 5834 5835 5836 5837 5837 5838 5839 5839 5840 5840 5840 5839 5839 5838 5838 5837 5836 5836 5835 5834 5833 5833 5832 5831 5831 5831 5831 5832
5825 5827 5830 5831 5832 5832 5833 5833 5831 5830 5831 5831 5831 5831 5831 5831 5831 5830 5830 5830 5830 5831 5831 5831 5832 5832 5832 5833 5834 5834 5834 5835 5834 5834 5833 5833 5832 5831 5831 5830 5829 5828 5828 5827 5826 5826 5826 5826 5826
5820 5822 5824 5825 5826 5827 5829 5828 5826 5825 5826 5826 5826 5826 5826 5826 5825 5825 5825 5825 5825 5826 5826 5826 5826 5827 5827 5828 5828 5829 5829 5829 5829 5828 5828 5827 5826 5826 5825 5824 5823 5823 5822 5821 5821 5820 5820 5820 5820
5815 5816 5817 5819 5820 5822 5823 5825 5821 5820 5819 5820 5820 5820 5820 5819 5819 5819 5820 5819 5820 5820 5820 5820 5820 5821 5821 5822 5822 5822 5823 5823 5823 5823 5823 5822 5821 5820 5819 5818 5818 5817 5816 5816 5815 5815 5814 5814 5814
5807 5809 5811 5813 5814 5815 5816 5819 5815 5814 5813 5814 5814 5814 5814 5814 5814 5813 5814 5814 5813 5813 5814 5814 5814 5815 5815 5816 5816 5816 5816 5816 5817 5817 5817 5816 5815 5815 5814 5813 5812 5812 5811 5810 5809 5808 5808 5808 5807